Flag for Japan Weather past 2 weeks in Suzuka, Japan

Now
62 °F

Cool.


Feels Like: 62 °F
Forecast: 57 / 67 °F
Wind: 12 mph from Northwest

Location: Tsu

Current Time: Oct 23, 2014 at 12:40:17 AM

Latest Report: Oct 23, 2014 at 12:00 AM


Visibility: N/A

Pressure: 29.92 "Hg

Humidity: 72%

Dew point: 53 °F

Location of SuzukaLocation

Historic Weather in Suzuka — Graph

°F

Suzuka temperature yesterday

Maximum temperature yesterday: 70 °F (at 10:00 AM)
Minimum temperature yesterday: 61 °F (at 10:00 PM)
Average temperature yesterday: 66 °F

Past Weeks' High & Low Weather Summary

 TemperatureHumidityPressure
High75 °F (Oct 10, 2:00 PM)97% (Oct 21, 1:00 AM)30.37 "Hg (Oct 21, 1:00 AM)
Low51 °F (Oct 19, 6:00 AM)37% (Oct 17, 2:00 PM)29.09 "Hg (Oct 13, 10:00 PM)
Average66 °F72%30.06 "Hg
* Reported Oct 7 10:00 PM — Oct 22 10:00 PM, Suzuka, Weather by CustomWeather, © 2014

Note: Actual official high and low records may vary slightly from our data, if they occured in-between our weather recording intervals... More about our weather records

Advertising

Suzuka weather history for previous 24 hours

 ConditionsComfort  
Time TempWeatherWind HumidityBarometerVisibility
10:00 PM
Oct 22
61 °FCool.7 mph80%29.93 "HgN/A
9:00 PM62 °FSprinkles. Overcast.8 mph77%29.90 "Hg6 mi
8:00 PM63 °FMild.9 mph79%29.88 "HgN/A
7:00 PM63 °FMild.10 mph79%29.87 "HgN/A
6:00 PM63 °FMild.9 mph83%29.85 "HgN/A
5:00 PM62 °FCool.7 mph89%29.84 "HgN/A
4:00 PM64 °FMild.7 mph85%29.83 "HgN/A
3:00 PM66 °FSprinkles. Overcast.7 mph75%29.82 "Hg16 mi
2:00 PM67 °FMild.9 mph67%29.81 "HgN/A
1:00 PM68 °FMild.10 mph69%29.81 "HgN/A
12:00 PM69 °FMild.8 mph68%29.82 "HgN/A
11:00 AM69 °FMild.8 mph70%29.83 "HgN/A
10:00 AM70 °FMild.3 mph77%29.83 "HgN/A
9:00 AM69 °FFog.6 mph77%29.85 "Hg5 mi
8:00 AM68 °FMild.2 mph91%29.84 "HgN/A
7:00 AM66 °FMild.3 mph93%29.84 "HgN/A
6:00 AM66 °FMild.3 mph95%29.83 "HgN/A
5:00 AM66 °FMild.3 mph95%29.83 "HgN/A
4:00 AM66 °FMild.2 mph95%29.84 "HgN/A
3:00 AM66 °FMild.2 mph94%29.85 "HgN/A
2:00 AM66 °FMild.2 mph93%29.86 "HgN/A
1:00 AM66 °FMild.3 mph94%29.88 "HgN/A
12:00 AM67 °FMild.3 mph93%29.90 "HgN/A
Weather by CustomWeather, © 2014

See weather overviewHow to use our weather pages